[TLELIST] Archives

 

Current TLEs

October 25th 2006 PDT

HST 1 20580U 90037B 06298.23290108 .00000440 00000-0 21456-4 0 7262 2 20580 028.4698 282.0942 0003872 128.3684 231.7252 15.00115628704645 ISS (ZARYA) 1 25544U 98067A 06298.48020833 .00017459 00000-0 10741-3 0 9254 2 25544 051.6361 236.1315 0012720 134.1721 019.0564 15.77234495453718 CXO 1 25867U 99040B 06297.33333333 +.00000492 +00000-0 +00000-0 0 09926 2 25867 060.4755 094.2572 5926122 288.3582 000.5147 00.37804317001369 ____________________________________________________________________ These 2-Line ...Continue Reading

Current TLEs

October 24th 2006 PDT

HST 1 20580U 90037B 06296.43657124 .00000425 00000-0 20255-4 0 7255 2 20580 028.4699 293.8042 0003764 110.5771 249.5221 15.00114499704375 ISS (ZARYA) 1 25544U 98067A 06297.45797574 .00017353 00000-0 10695-3 0 9175 2 25544 051.6346 241.4066 0012811 130.5873 334.5010 15.77197120453558 CXO 1 25867U 99040B 06294.66666667 +.00000456 +00000-0 +00000-0 0 09917 2 25867 060.4581 094.2928 5923118 288.4328 357.4216 00.37805187001358 ____________________________________________________________________ These 2-Line ...Continue Reading

Current TLEs

October 23rd 2006 PDT

HST 1 20580U 90037B 06294.44064713 +.00000468 +00000-0 +23618-4 0 07411 2 20580 028.4694 306.8188 0003685 088.3756 271.7254 15.00113831704072 ISS (ZARYA) 1 25544U 98067A 06296.45023148 .00021813 00000-0 13352-3 0 9127 2 25544 051.6339 246.6042 0012958 128.1890 011.2173 15.77162573453390 CXO 1 25867U 99040B 06294.66666667 +.00000456 +00000-0 +00000-0 0 09917 2 25867 060.4581 094.2928 5923118 288.4328 357.4216 00.37805187001358 ____________________________________________________________________ These 2-Line ...Continue Reading

Current TLEs

October 22nd 2006 PDT

HST 1 20580U 90037B 06295.23901664 .00000417 00000-0 19667-4 0 7248 2 20580 028.4699 301.6120 0003592 099.2435 260.8558 15.00113767704195 ISS (ZARYA) 1 25544U 98067A 06295.12744213 .00021100 00000-0 12965-3 0 9064 2 25544 051.6325 253.4309 0012971 123.3467 060.6025 15.77101493453184 CXO 1 25867U 99040B 06294.66666667 +.00000456 +00000-0 +00000-0 0 09917 2 25867 060.4581 094.2928 5923118 288.4328 357.4216 00.37805187001358 ____________________________________________________________________ These 2-Line ...Continue Reading

Current TLEs

October 21st 2006 PDT

HST 1 20580U 90037B 06293.44268412 .00000477 00000-0 24343-4 0 7238 2 20580 028.4696 313.3248 0003635 078.0138 282.0862 15.00113309703922 ISS (ZARYA) 1 25544U 98067A 06294.47907604 .00014458 00000-0 90339-4 0 9022 2 25544 051.6332 256.7738 0013062 120.4953 339.8459 15.77061839453084 CXO 1 25867U 99040B 06292.00000000 +.00000397 +00000-0 +00000-0 0 09909 2 25867 060.4480 094.3354 5921314 288.5009 354.3313 00.37805311001345 ____________________________________________________________________ These 2-Line ...Continue Reading

Current TLEs

October 20th 2006 PDT

HST 1 20580U 90037B 06292.51125109 +.00000482 +00000-0 +24704-4 0 07350 2 20580 028.4698 319.3964 0003556 068.4335 291.6632 15.00112783703789 ISS (ZARYA) 1 25544U 98067A 06293.46431870 .00013144 00000-0 82648-4 0 8953 2 25544 051.6342 262.0095 0012879 116.8093 338.4765 15.77027343452929 CXO 1 25867U 99040B 06292.00000000 +.00000397 +00000-0 +00000-0 0 09909 2 25867 060.4480 094.3354 5921314 288.5009 354.3313 00.37805311001345 ____________________________________________________________________ These 2-Line ...Continue Reading

Current TLEs

October 19th 2006 PDT

HST 1 20580U 90037B 06291.44675594 +.00000494 +00000-0 +25656-4 0 07382 2 20580 028.4698 326.3355 0003549 057.0627 303.0301 15.00112190703627 ISS (ZARYA) 1 25544U 98067A 06292.45894382 .00015417 00000-0 96299-4 0 8897 2 25544 051.6330 267.1995 0012997 113.5575 030.1053 15.77003829452762 CXO 1 25867U 99040B 06292.00000000 +.00000397 +00000-0 +00000-0 0 09909 2 25867 060.4480 094.3354 5921314 288.5009 354.3313 00.37805311001345 ____________________________________________________________________ These 2-Line ...Continue Reading

Current TLEs

October 18th 2006 PDT

HST 1 20580U 90037B 06290.51532216 .00000502 00000-0 26343-4 0 7218 2 20580 028.4697 332.4066 0003553 047.0340 313.0548 15.00111621703485 ISS (ZARYA) 1 25544U 98067A 06291.49989741 .00009890 00000-0 63389-4 0 8829 2 25544 051.6340 272.1428 0013049 109.2461 346.0696 15.76964099452615 CXO 1 25867U 99040B 06289.37500000 +.00000327 +00000-0 +00000-0 0 09891 2 25867 060.4376 094.3870 5918950 288.5666 356.9117 00.37803563001339 ____________________________________________________________________ These 2-Line ...Continue Reading

Current TLEs

October 17th 2006 PDT

HST 1 20580U 90037B 06288.58592220 +.00000485 +00000-0 +24951-4 0 07418 2 20580 028.4695 344.9841 0003506 025.3844 334.6918 15.00110162703195 ISS (ZARYA) 1 25544U 98067A 06290.43321329 .00069281 00000-0 41660-3 0 8775 2 25544 051.6287 277.6576 0012724 105.7169 049.9060 15.76970725452442 CXO 1 25867U 99040B 06289.37500000 +.00000327 +00000-0 +00000-0 0 09891 2 25867 060.4376 094.3870 5918950 288.5666 356.9117 00.37803563001339 ____________________________________________________________________ These 2-Line ...Continue Reading

Current TLEs

October 16th 2006 PDT

HST 1 20580U 90037B 06289.25123277 .00000488 00000-0 25201-4 0 7204 2 20580 028.4695 340.6479 0003476 032.2460 327.8342 15.00110622703299 ISS (ZARYA) 1 25544U 98067A 06289.47959089 .00060576 00000-0 36541-3 0 8698 2 25544 051.6345 282.5697 0012785 101.6513 036.6504 15.76952697452298 CXO 1 25867U 99040B 06286.70833333 +.00000265 +00000-0 +00000-0 0 09883 2 25867 060.4275 094.4342 5916446 288.6471 353.8155 00.37800847001324 ____________________________________________________________________ These 2-Line ...Continue Reading
  • This mailing list is a public mailing list - anyone may join or leave, at any time.
  • This mailing list is announce-only.

International Space Station (ISS) / Hubble Space Telescope (HST) / Chandra X-Ray Observatory Orbital Data via EMAIL

Privacy Policy:

Private list